Stündliche Wetter Darłowo

Heute, 31 Oktober, Samstag

Zeit Temperatur Niederschläge Wind Luftdruck Luftfeuchtigkeit
00:00 +12°C° 0.1 mm 1 m/S 757 mmHg 97%
01:00 +12°C° 0 mm 2 m/S 757 mmHg 98%
02:00 +12°C° 0.1 mm 2 m/S 758 mmHg 97%
03:00 +12°C° 0.1 mm 1 m/S 758 mmHg 97%
04:00 +11°C° 0.1 mm 1 m/S 758 mmHg 97%
05:00 +11°C° 0 mm 1 m/S 758 mmHg 97%
06:00 +10°C° 0 mm 2 m/S 759 mmHg 96%
07:00 +10°C° 0 mm 2 m/S 759 mmHg 96%
08:00 +10°C° 0 mm 2 m/S 759 mmHg 95%
09:00 +10°C° 0 mm 2 m/S 760 mmHg 93%
10:00 +10°C° 0 mm 2 m/S 760 mmHg 92%
11:00 +12°C° 0 mm 2 m/S 760 mmHg 90%
12:00 +13°C° 0 mm 2 m/S 760 mmHg 88%
13:00 +13°C° 0 mm 2 m/S 759 mmHg 86%
14:00 +12°C° 0 mm 3 m/S 759 mmHg 87%
15:00 +12°C° 0 mm 3 m/S 759 mmHg 89%
16:00 +12°C° 0 mm 3 m/S 759 mmHg 90%
17:00 +12°C° 0 mm 3 m/S 759 mmHg 91%
18:00 +12°C° 0 mm 3 m/S 759 mmHg 92%
19:00 +11°C° 0 mm 3 m/S 759 mmHg 93%
20:00 +11°C° 0 mm 3 m/S 759 mmHg 93%
21:00 +11°C° 0 mm 4 m/S 758 mmHg 93%
22:00 +12°C° 0 mm 4 m/S 758 mmHg 94%
23:00 +11°C° 0 mm 4 m/S 758 mmHg 94%

Morgen, 1 November, Sonntag

Zeit Temperatur Niederschläge Wind Luftdruck Luftfeuchtigkeit
00:00 +11°C° 0 mm 4 m/S 758 mmHg 94%
01:00 +11°C° 0 mm 4 m/S 757 mmHg 94%
02:00 +10°C° 0 mm 4 m/S 757 mmHg 95%
03:00 +10°C° 0 mm 4 m/S 756 mmHg 95%
04:00 +10°C° 0 mm 4 m/S 756 mmHg 95%
05:00 +10°C° 0 mm 4 m/S 756 mmHg 95%
06:00 +8°C° 0 mm 4 m/S 755 mmHg 95%
07:00 +9°C° 0 mm 3 m/S 755 mmHg 96%
08:00 +10°C° 0 mm 3 m/S 755 mmHg 93%
09:00 +10°C° 0 mm 4 m/S 755 mmHg 90%
10:00 +11°C° 0 mm 4 m/S 755 mmHg 88%
11:00 +11°C° 0.2 mm 4 m/S 754 mmHg 89%
12:00 +11°C° 0.2 mm 4 m/S 754 mmHg 90%
13:00 +11°C° 0.2 mm 4 m/S 753 mmHg 91%
14:00 +11°C° 0.1 mm 4 m/S 753 mmHg 91%
15:00 +11°C° 0.1 mm 4 m/S 752 mmHg 91%
16:00 +12°C° 0.1 mm 4 m/S 752 mmHg 91%
17:00 +12°C° 0.7 mm 4 m/S 752 mmHg 92%
18:00 +12°C° 0.7 mm 4 m/S 751 mmHg 93%
19:00 +12°C° 0.7 mm 4 m/S 751 mmHg 94%
20:00 +12°C° 0.3 mm 5 m/S 751 mmHg 94%
21:00 +12°C° 0.3 mm 5 m/S 751 mmHg 93%
22:00 +12°C° 0.3 mm 5 m/S 750 mmHg 93%
23:00 +13°C° 0.2 mm 5 m/S 750 mmHg 91%

übermorgen, 2 November, Montag

Zeit Temperatur Niederschläge Wind Luftdruck Luftfeuchtigkeit
00:00 +13°C° 0.2 mm 5 m/S 750 mmHg 90%
01:00 +13°C° 0.2 mm 5 m/S 750 mmHg 89%
02:00 +13°C° 0 mm 5 m/S 751 mmHg 89%
03:00 +12°C° 0 mm 4 m/S 751 mmHg 90%
04:00 +12°C° 0 mm 4 m/S 751 mmHg 90%
05:00 +12°C° 0.2 mm 4 m/S 751 mmHg 91%
06:00 +12°C° 0.2 mm 3 m/S 752 mmHg 91%
07:00 +11°C° 0.2 mm 3 m/S 752 mmHg 92%
08:00 +11°C° 0.5 mm 3 m/S 752 mmHg 93%
09:00 +11°C° 0.5 mm 3 m/S 752 mmHg 93%
10:00 +11°C° 0.5 mm 3 m/S 752 mmHg 94%
11:00 +13°C° 0 mm 3 m/S 752 mmHg 92%
12:00 +14°C° 0 mm 4 m/S 752 mmHg 90%
13:00 +16°C° 0 mm 5 m/S 752 mmHg 88%
14:00 +16°C° 0 mm 5 m/S 752 mmHg 89%
15:00 +17°C° 0 mm 4 m/S 752 mmHg 90%
16:00 +17°C° 0 mm 4 m/S 752 mmHg 91%
17:00 +17°C° 0 mm 4 m/S 752 mmHg 89%
18:00 +17°C° 0 mm 4 m/S 752 mmHg 87%
19:00 +17°C° 0 mm 4 m/S 752 mmHg 86%
20:00 +16°C° 0 mm 5 m/S 752 mmHg 85%
21:00 +16°C° 0 mm 5 m/S 752 mmHg 85%
22:00 +16°C° 0 mm 5 m/S 752 mmHg 85%
23:00 +15°C° 0 mm 5 m/S 753 mmHg 85%

3 November, Dienstag

Zeit Temperatur Niederschläge Wind Luftdruck Luftfeuchtigkeit
00:00 +15°C° 0 mm 5 m/S 753 mmHg 86%
01:00 +15°C° 0 mm 5 m/S 753 mmHg 87%
02:00 +15°C° 0 mm 5 m/S 754 mmHg 84%
03:00 +15°C° 0 mm 5 m/S 754 mmHg 82%
04:00 +14°C° 0 mm 4 m/S 755 mmHg 80%
05:00 +13°C° 0 mm 4 m/S 755 mmHg 79%
06:00 +13°C° 0 mm 4 m/S 756 mmHg 78%
07:00 +12°C° 0 mm 4 m/S 757 mmHg 77%
08:00 +12°C° 0 mm 5 m/S 758 mmHg 73%
09:00 +11°C° 0 mm 6 m/S 758 mmHg 69%
10:00 +11°C° 0 mm 7 m/S 759 mmHg 66%
11:00 +11°C° 0 mm 7 m/S 759 mmHg 64%
12:00 +11°C° 0 mm 7 m/S 759 mmHg 61%
13:00 +11°C° 0 mm 6 m/S 760 mmHg 59%
14:00 +11°C° 0 mm 6 m/S 760 mmHg 62%
15:00 +10°C° 0 mm 5 m/S 760 mmHg 64%
16:00 +10°C° 0 mm 4 m/S 760 mmHg 67%
17:00 +10°C° 0 mm 4 m/S 761 mmHg 67%
18:00 +8°C° 0 mm 4 m/S 761 mmHg 67%
19:00 +9°C° 0 mm 3 m/S 761 mmHg 68%
20:00 +9°C° 0 mm 3 m/S 762 mmHg 70%
21:00 +8°C° 0 mm 3 m/S 762 mmHg 73%
22:00 +8°C° 0 mm 3 m/S 762 mmHg 75%
23:00 +7°C° 0 mm 3 m/S 762 mmHg 77%

4 November, Mittwoch

Zeit Temperatur Niederschläge Wind Luftdruck Luftfeuchtigkeit
00:00 +7°C° 0 mm 3 m/S 762 mmHg 78%
01:00 +7°C° 0 mm 3 m/S 762 mmHg 80%
02:00 +5°C° 0 mm 3 m/S 762 mmHg 82%
03:00 +5°C° 0 mm 3 m/S 763 mmHg 84%
04:00 +4°C° 0 mm 3 m/S 763 mmHg 87%
05:00 +4°C° 0 mm 3 m/S 763 mmHg 87%
06:00 +4°C° 0 mm 3 m/S 763 mmHg 88%
07:00 +4°C° 0 mm 3 m/S 763 mmHg 89%
08:00 +5°C° 0 mm 3 m/S 764 mmHg 83%
09:00 +6°C° 0 mm 4 m/S 764 mmHg 77%
10:00 +7°C° 0 mm 4 m/S 764 mmHg 72%
11:00 +7°C° 0 mm 4 m/S 765 mmHg 69%
12:00 +8°C° 0 mm 4 m/S 765 mmHg 67%
13:00 +10°C° 0 mm 4 m/S 765 mmHg 64%
14:00 +9°C° 0 mm 3 m/S 765 mmHg 67%
15:00 +8°C° 0 mm 3 m/S 765 mmHg 70%
16:00 +8°C° 0 mm 2 m/S 766 mmHg 73%
17:00 +7°C° 0 mm 2 m/S 766 mmHg 75%
18:00 +7°C° 0 mm 2 m/S 767 mmHg 77%
19:00 +6°C° 0 mm 2 m/S 767 mmHg 79%
20:00 +6°C° 0 mm 2 m/S 767 mmHg 81%
21:00 +5°C° 0 mm 2 m/S 768 mmHg 83%
22:00 +5°C° 0 mm 2 m/S 768 mmHg 85%
23:00 +5°C° 0 mm 2 m/S 768 mmHg 87%

5 November, Donnerstag

Zeit Temperatur Niederschläge Wind Luftdruck Luftfeuchtigkeit
00:00 +4°C° 0 mm 2 m/S 768 mmHg 89%
01:00 +4°C° 0 mm 2 m/S 769 mmHg 90%
02:00 +4°C° 0 mm 2 m/S 769 mmHg 91%
03:00 +4°C° 0 mm 2 m/S 769 mmHg 92%
04:00 +4°C° 0 mm 2 m/S 769 mmHg 93%
05:00 +4°C° 0 mm 2 m/S 769 mmHg 93%
06:00 +3°C° 0 mm 2 m/S 770 mmHg 94%
07:00 +3°C° 0 mm 2 m/S 770 mmHg 95%
08:00 +4°C° 0 mm 2 m/S 770 mmHg 91%
09:00 +6°C° 0 mm 2 m/S 770 mmHg 87%
10:00 +7°C° 0 mm 3 m/S 770 mmHg 84%
11:00 +8°C° 0 mm 3 m/S 771 mmHg 80%
12:00 +8°C° 0 mm 3 m/S 771 mmHg 77%
13:00 +9°C° 0 mm 3 m/S 771 mmHg 74%
14:00 +9°C° 0 mm 3 m/S 771 mmHg 77%
15:00 +8°C° 0 mm 2 m/S 771 mmHg 80%
16:00 +7°C° 0 mm 2 m/S 770 mmHg 83%
17:00 +7°C° 0 mm 2 m/S 771 mmHg 86%
18:00 +6°C° 0 mm 2 m/S 771 mmHg 89%
19:00 +5°C° 0 mm 3 m/S 771 mmHg 92%
20:00 +5°C° 0 mm 2 m/S 771 mmHg 92%
21:00 +5°C° 0 mm 2 m/S 771 mmHg 93%
22:00 +5°C° 0 mm 2 m/S 771 mmHg 93%
23:00 +5°C° 0 mm 2 m/S 771 mmHg 94%
Mehr zeigen